Regional Weather Roundup
Issued by NWS

Home | Current Version | Previous Version | Graphics & Text | Print | Product List | Glossary On
Versions: 1 2 3 4 5 6 7 8 9 10 11 12 13 14 15 16 17 18 19 20 21 22 23 24 25 26 27 28 29 30 31 32 33 34 35 36 37 38 39 40 41 42 43 44 45 46 47 48 49 50
000
ASUS45 KBOU 171310
RWRCO

WEATHER ROUNDUP FOR COLORADO
NATIONAL WEATHER SERVICE DENVER/BOULDER CO
600 AM MST SUN DEC 17 2017

NOTE: "FAIR" INDICATES FEW OR NO CLOUDS BELOW 12000 FEET WITH NO
SIGNIFICANT WEATHER AND/OR OBSTRUCTIONS TO VISIBILITY.

COZ001>005-013-030-031-171400-
...NORTHWEST COLORADO...

CITY           SKY/WX    TMP DP  RH WIND       PRES   REMARKS
CRAIG          CLOUDY    19  13  77 CALM      30.02R
HAYDEN         CLOUDY    20  15  81 SE3       30.02R
MEEKER         FAIR      11   5  77 CALM      30.01R
RABBIT EARS PA FOG       14  12  92 W9G17     29.93R VSB 3/4 WCI   2
STEAMBOAT SPGS CLOUDY    11   8  85 W3        30.00R
WALDEN         FAIR       0  -6  78 CALM      29.97R
$$

COZ006>008-011-171400-
...WEST CENTRAL VALLEYS...

CITY           SKY/WX    TMP DP  RH WIND       PRES   REMARKS
GRAND JUNCTION FAIR      13   2  61 CALM      30.02R
MONTROSE       FAIR      16   7  67 SE7       30.04R WCI   6
EAGLE          FAIR       5   1  83 E5        30.06R WCI  -4
RIFLE          FAIR      14   6  70 CALM      30.04R
DELTA          FAIR      19   5  55 CALM      30.04R
NUCLA          FAIR      21  -2  35 SE5       30.04R WCI  15
$$

COZ017>023-064>068-171400-
...SOUTHWEST COLORADO...

CITY           SKY/WX    TMP DP  RH WIND       PRES   REMARKS
DURANGO        FAIR      23   9  55 CALM      29.99R
CORTEZ         FAIR      20   2  45 NE3       29.99R
PAGOSA SPRINGS MOCLDY    23   5  46 CALM      30.00R
TELLURIDE      FAIR      25  -4  27 SE6       29.99S WCI  18
WOLF CREEK PAS MOCLDY    14  -4  44 SW15      30.03R WCI  -1
$$

COZ009-010-012-014-032>034-037-058>063-171400-
...CENTRAL COLORADO...

CITY           SKY/WX    TMP DP  RH WIND       PRES   REMARKS
ASPEN          FAIR      13   3  64 S7        29.96R WCI   3
BUENA VISTA    FAIR      13   6  75 CALM      29.95R
COPPER MTN     NOT AVBL
BERTHOUD PASS  FAIR      12   1  62 NW26      29.90S WCI  -8
COTTONWOOD PAS FAIR      32  -4  21 W5        29.93R WCI  27
GUNNISON       FAIR       9   3  77 CALM      30.02R
KREMMLING      FAIR       3  -4  72 CALM      30.02R
LEADVILLE      FAIR      15  -4  42 N5        29.93R WCI   8
MONARCH PASS   FAIR      16   0  48 W25       30.06R WCI  -3
SALIDA         FAIR      19   9  65 N6        30.02R WCI  11
SUNLIGHT       FAIR      14  -4  44 SW10      30.00R WCI   1
WILKERSON PASS FAIR      21  -4  33 W13G21    29.94R WCI   9
$$

COZ069>075-171400-
...SAN LUIS VALLEY/SANGRE DE CRISTO MOUNTAINS...

CITY           SKY/WX    TMP DP  RH WIND       PRES   REMARKS
ALAMOSA        FAIR      15  10  80 CALM      29.96R
DEL NORTE      MOCLDY    20  10  65 W7        29.97R WCI  11
LA VETA PASS   CLOUDY    23   1  39 SW28G33     N/A  WCI   6
SAGUACHE       MOCLDY    16   7  67 NW8       29.98R WCI   5
$$

COZ035-036-038>040-171400-
...NORTHERN COLORADO FRONT RANGE...

CITY           SKY/WX    TMP DP  RH WIND       PRES   REMARKS
DENVER INTL AP CLOUDY    28  26  92 E3        29.98R
DMNS CITY PARK NOT AVBL
AURORA         CLOUDY    28  27  99 CALM      29.98R
FRONT RANGE AP CLOUDY    31  30  96 CALM      29.99R
ERIE MUNI ARPT CLOUDY    32  29  90 CALM      30.05R
BOULDER MUN AP CLOUDY    32  30  93 NE3       29.99R
CENTENNIAL     CLOUDY    29  26  89 CALM      29.96R
BROOMFIELD     CLOUDY    30  28  93 N3        29.99R
FORT COLLINS   CLOUDY    30  28  93 E7        30.01R WCI  23
LONGMONT       CLOUDY    33  31  93 E3        30.02R FOG
$$

COZ041-046-047-076>085-087-088-171400-
...PIKES PEAK/PALMER DIVIDE AND SOUTHERN FOOTHILLS...

CITY           SKY/WX    TMP DP  RH WIND       PRES   REMARKS
COLO. SPRINGS  FOG       23  22  96 S5        29.98R VSB 1/4 WCI  17
A. F. ACADEMY  MOCLDY    23  19  85 CALM      29.95R
SCHRIEVER AFB  MOCLDY    24  21  91 CALM      29.98R
CHEYENNE MTN   MOCLDY    23  20  85 CALM      29.90R
ELLICOTT       CLOUDY   N/A N/A N/A NE7       29.96R
FALCON         CLOUDY    22  20  92 CALM      29.96R
FORT CARSON    CLOUDY    25  23  93 S7        29.97R WCI  17
LIMON          CLOUDY    28  25  88 N5        29.98R WCI  23
MONUMENT HILL  CLOUDY    23  21  93 N3        29.96R
CANON CITY     CLOUDY    28  27  93 CALM      30.00R
WALSENBURG     PTSUNNY   19  16  86 CALM      29.98R
TRINIDAD       FAIR      23  19  85 N5        29.98R WCI  17
$$

COZ042>045-048>051-090-091-171400-
...NORTHEAST COLORADO...

CITY           SKY/WX    TMP DP  RH WIND       PRES   REMARKS
GREELEY ARPT   CLOUDY    30  29  96 E7        30.01R WCI  23
AKRON          FOG       29  28  96 NE7       30.00R VSB 3/4 WCI  22
BURLINGTON     CLOUDY    32  30  92 N8        29.99R WCI  25
WRAY           CLOUDY   N/A N/A N/A N6        30.01S HAZE
YUMA           CLOUDY    30  30 100 N7        30.00R FOG     WCI  23
STERLING       CLOUDY    32  32 100 E3        30.00R
HOLYOKE        CLOUDY    34  32  93 N7        30.02R FOG     WCI  28
FORT MORGAN    FOG       30  29  96 E6        30.01R VSB 1   WCI  24
$$

COZ086-089-092>099-171400-
...SOUTHEAST COLORADO...

CITY           SKY/WX    TMP DP  RH WIND       PRES   REMARKS
PUEBLO         CLOUDY    29  23  78 W3        30.01R
LA JUNTA       CLOUDY    33  27  78 CALM      30.02R
LAMAR          CLOUDY    33  26  75 NW3       30.00R
SPRINGFIELD      N/A     29  26  89 NW17G25   29.99R WCI  17
$$



USA.gov is the U.S. government's official web portal to all federal, state and local government web resources and services.